{"data":{"norad_id":55174,"epoch":"2026-05-25T01:22:57.885024Z","epoch_age_seconds":76894,"freshness":"FRESH","line1":"1 55174U 23004AL  26145.05761441  .00000273  00000+0  73328-3 0  9994","line2":"2 55174  87.8908  25.6685 0002351  95.9876 264.1519 13.11415216162801","mean_motion":13.11415216,"eccentricity":0.0002351,"inclination_deg":87.8908,"raan_deg":25.6685,"arg_perigee_deg":95.9876,"mean_anomaly_deg":264.1519,"bstar":0.00073328,"rev_number":16280,"period_min":109.80503980976,"perigee_km":1215.9035959272,"apogee_km":1219.4751534886,"semimajor_km":7595.8263747079,"source":"CELESTRAK","updated_at":"2026-05-25T13:38:22.646948Z"}}